TimeMST,TemperatureF,Dew PointF,Humidity,Sea Level PressureIn,VisibilityMPH,Wind Direction,Wind SpeedMPH,Gust SpeedMPH,PrecipitationIn,Events,Conditions,WindDirDegrees,DateUTC
12:53 AM,41.0,12.0,31,29.91,10.0,West,5.8,-,N/A,,Clear,270,2013-01-24 07:53:00
1:53 AM,46.9,7.0,20,29.88,10.0,Calm,Calm,-,N/A,,Clear,0,2013-01-24 08:53:00
2:53 AM,44.1,10.9,26,29.89,10.0,SSW,3.5,-,N/A,,Clear,210,2013-01-24 09:53:00
3:53 AM,39.9,12.9,33,29.90,10.0,West,6.9,-,N/A,,Clear,270,2013-01-24 10:53:00
4:53 AM,48.0,9.0,21,29.87,10.0,West,12.7,-,N/A,,Clear,270,2013-01-24 11:53:00
5:53 AM,52.0,10.0,19,29.86,10.0,Calm,Calm,-,N/A,,Clear,0,2013-01-24 12:53:00
6:53 AM,53.1,14.0,21,29.84,10.0,SW,10.4,-,N/A,,Clear,220,2013-01-24 13:53:00
7:53 AM,48.9,10.9,22,29.88,10.0,Calm,Calm,-,N/A,,Clear,0,2013-01-24 14:53:00
8:53 AM,48.0,10.9,22,29.88,10.0,Calm,Calm,-,N/A,,Clear,0,2013-01-24 15:53:00
9:53 AM,46.9,12.9,25,29.90,10.0,North,-9999.0,-,N/A,,Clear,0,2013-01-24 16:53:00
10:53 AM,43.0,15.1,32,29.93,10.0,SSE,3.5,-,N/A,,Clear,160,2013-01-24 17:53:00
11:53 AM,46.9,14.0,27,29.91,10.0,SE,3.5,-,N/A,,Clear,130,2013-01-24 18:53:00
12:53 PM,46.0,16.0,30,29.88,10.0,ESE,3.5,-,N/A,,Clear,120,2013-01-24 19:53:00
1:53 PM,45.0,18.0,34,29.90,10.0,Calm,Calm,-,N/A,,Mostly Cloudy,0,2013-01-24 20:53:00
2:53 PM,45.0,18.0,34,29.93,10.0,Variable,3.5,-,N/A,,Clear,0,2013-01-24 21:53:00
3:53 PM,41.0,23.0,49,30.00,10.0,NW,4.6,-,N/A,,Mostly Cloudy,320,2013-01-24 22:53:00
4:53 PM,41.0,21.9,47,29.99,10.0,North,4.6,-,N/A,,Clear,350,2013-01-24 23:53:00
5:53 PM,39.0,21.0,49,30.01,10.0,NW,5.8,-,N/A,,Clear,310,2013-01-25 00:53:00
6:53 PM,30.9,21.0,67,30.06,10.0,West,5.8,-,N/A,,Clear,280,2013-01-25 01:53:00
7:53 PM,32.0,21.0,64,30.08,10.0,NW,9.2,-,N/A,,Clear,310,2013-01-25 02:53:00
8:53 PM,34.0,21.9,61,30.09,10.0,Calm,Calm,-,N/A,,Clear,0,2013-01-25 03:53:00
9:53 PM,27.0,19.0,72,30.12,10.0,West,3.5,-,N/A,,Clear,260,2013-01-25 04:53:00
10:53 PM,28.9,19.9,69,30.14,10.0,SW,3.5,-,N/A,,Clear,220,2013-01-25 05:53:00
11:53 PM,26.1,18.0,71,30.13,10.0,WSW,3.5,-,N/A,,Clear,240,2013-01-25 06:53:00